Regional Weather Roundup
Issued by NWS Newport/Morehead, NC

Current Version | Previous Version | Text Only | Print | Product List | Glossary On
Versions: 1 2 3 4 5 6 7 8 9 10 11 12 13 14 15 16 17 18 19 20 21 22 23 24 25 26 27 28 29 30 31 32 33 34 35 36 37 38 39 40 41 42 43 44 45 46 47 48 49 50
000 ASUS42 KMHX 050224 RWRMHX WEATHER ROUNDUP FOR EASTERN NORTH CAROLINA NATIONAL WEATHER SERVICE NEWPORT/MOREHEAD CITY NC 900 PM EST SUN DEC 04 2016 NOTE: "FAIR" INDICATES FEW OR NO CLOUDS BELOW 12,000 FEET WITH NO SIGNIFICANT WEATHER AND/OR OBSTRUCTIONS TO VISIBILITY NCZ015>017-031-032-045>047-102-103-050300- NORTH COAST CITY SKY/WX TMP DP RH WIND PRES REMARKS EDENTON DRIZZLE 47 43 87 CALM 30.17F ELIZABETH CITY LGT RAIN 46 40 79 E3 30.19F KITTY HAWK DRIZZLE 48 41 76 CALM 30.17F MANTEO LGT RAIN 47 42 82 CALM 30.19F $$ NCZ045>047-081-094-103-104-050300- CENTRAL COAST CITY SKY/WX TMP DP RH WIND PRES REMARKS FRISCO LGT RAIN 49 43 80 NE5 30.17F $$ NCZ095-097-098-100-101-050300- SOUTHERN COAST CITY SKY/WX TMP DP RH WIND PRES REMARKS BEAUFORT LGT RAIN 48 47 96 E7 30.16F CEDAR ISLAND NOT AVBL JACKSONVILLE LGT RAIN 46 44 93 E9 30.14F PINEY ISLAND LGT RAIN N/A N/A N/A E7 30.17F WILMINGTON LGT RAIN 46 45 96 E6 30.12F $$ NCZ011>013-027>030-043-044-078>080-089-090>093-098-050300- COASTAL PLAIN CITY SKY/WX TMP DP RH WIND PRES REMARKS AHOSKIE RAIN 42 40 95 CALM 30.16F CLINTON RAIN 44 44 99 E5 30.12F ELIZABETHTOWN RAIN 44 44 100 E3 30.11F GOLDSBORO MIX PCPN 45 45 100 E8 30.10F GREENVILLE RAIN 45 45 100 E3 30.16F HAVELOCK LGT RAIN 47 44 90 E9 30.16F KENANSVILLE LGT RAIN 45 43 93 E3 30.13F FOG KINSTON PTCLDY 45 41 87 E6 30.14F NEW BERN LGT RAIN 46 43 89 E5 30.16F RICHLANDS LGT RAIN 45 44 97 E7 30.13F ROCKY MOUNT LGT RAIN 43 43 100 VRB5 30.13F WASHINGTON DRIZZLE 44 43 93 E5 30.15F WHITEVILLE LGT RAIN 46 43 90 NE5 30.10F $$ AMZ130-135-150-152-154-156-158-170-250-252-270-ANZ085-086-088-633-658-670-050300- MARINE OBSERVATIONS STATION/POSITION TIME TEMP WIND PRES WAVE SWELL AIR SEA DIR/SP/G HT/PER HT/PER (UTC) (F) (DEG/KT/KT) (MB) (FT/S) (FT/S) CHESAPEAKE LIGHT NOT AVBL 64 E VA BEACH 0150 50 60 40/ 4/ 8 1022.0 3/ 6 3/ 6 DUCK 0200 49 55 90/ 5/ 6 1021.4 2 E DUCK NOT AVBL OREGON INLET 0200 50 55 90/ 2/ 4 1022.1 13E OREGON INLT NOT AVBL HATTERAS CG 0200 51 58 40/ 3/ 4 1021.4 DIAMOND BUOY 0150 59 75 80/ 4/ 6 1021.7 4/ 8 3/ 8 CAPE LOOKOUT 0200 54 50/ 15/ 17 1020.6 BEAUFORT LAB 0200 47 54 50/ 5/ 9 1019.9 30 SE NEW RVR IN 0208 61 75 90/ 16/ 21 1020.0 30 SE NEW RVR IN NOT AVBL 27 SE WRIGHTSVLE 0208 62 68 90/ 16/ 21 1018.9 5 SE WRIGHTSVLE 0208 55 63 90/ 17/ 27 1018.4 225 S CAPE HAT 0150 67 73 120/ 10/ 12 1021.9 4/10 5/10 41 SE CHARLESTON 0150 72 75 150/ 19/ 21 1016.8 4/ 4 2/ 8 $$

USA.gov is the U.S. government's official web portal to all federal, state and local government web resources and services.